Tracking 25710 objects as of 5-Jul-2022
HD Live streaming from Space Station
objects crossing your sky now

STARLINK-2654

Track STARLINK-2654 now!
10-day predictions
STARLINK-2654 is classified as:


NORAD ID: 48454
Int'l Code: 2021-040AC
Perigee: 553.3 km
Apogee: 555.4 km
Inclination: 53.1 °
Period: 95.6 minutes
Semi major axis: 6925 km
RCS: Unknown
Launch date: May 9, 2021
Source: United States (US)
Launch site: AIR FORCE EASTERN TEST RANGE (AFETR)
aabbcc
Your satellite tracking list
Your tracking list is empty




NASA's NSSDC Master Catalog

Two Line Element Set (TLE):
1 48454U 21040AC  22185.44889584 -.00002180  00000-0 -12753-3 0  9994
2 48454  53.0554  96.1641 0001497  76.2471 283.8684 15.06389933 64022
Source of the keplerian elements: AFSPC